Location: Bo?a Wola
(50.4192°N, 19.7966°E)
Time: 05:57:13
(UTC+00:00)

CZ-4C R/B - Pass Details

Date: 21 September 2024
Orbit: 519 x 1471 km, 63.4° (Epoch: 09 October)

Event Time Altitude Azimuth Distance (km) Brightness Sun altitude
Exits shadow 22:55:16 22° 39° (NE) 1,767 4.2 -39.1°
Drops below altitude 10° 22:57:28 10° 42° (NE) 2,600 5.2 -39.1°
Sets 23:00:22 0° 45° (NE) 3,711 6.2 -39.0°
